25-06-2023, 00:00:03,    150,    0.0,   17.0,   0.00,   0.00, 1015.3,   69.4, -999.0
25-06-2023, 00:00:12,    150,    0.0,   17.0,   0.00,   0.00, 1015.3,   69.3, -999.0
25-06-2023, 00:00:22,    150,    0.2,   17.1,   0.00,   0.00, 1015.4,   69.4, -999.0
25-06-2023, 00:00:32,    150,    0.0,   17.0,   0.00,   0.00, 1015.4,   69.3, -999.0
25-06-2023, 00:00:43,    150,    0.0,   17.0,   0.00,   0.00, 1015.3,   69.2, -999.0
25-06-2023, 00:00:52,    150,    0.0,   17.0,   0.00,   0.00, 1015.3,   68.9, -999.0
25-06-2023, 00:01:02,    149,    0.0,   17.0,   0.00,   0.00, 1015.3,   69.0, -999.0
25-06-2023, 00:01:12,    150,    0.0,   16.9,   0.00,   0.00, 1015.3,   68.9, -999.0
25-06-2023, 00:01:22,    150,    0.0,   17.0,   0.00,   0.00, 1015.3,   68.9, -999.0
25-06-2023, 00:01:32,    150,    0.0,   17.0,   0.00,   0.00, 1015.3,   69.0, -999.0
25-06-2023, 00:01:42,    150,    0.0,   17.0,   0.00,   0.00, 1015.3,   69.2, -999.0
25-06-2023, 00:01:52,    149,    0.0,   17.0,   0.00,   0.00, 1015.3,   69.2, -999.0
25-06-2023, 00:02:02,    150,    0.0,   17.0,   0.00,   0.00, 1015.3,   69.1, -999.0
25-06-2023, 00:02:12,    150,    0.0,   17.0,   0.00,   0.00, 1015.3,   69.0, -999.0
25-06-2023, 00:02:22,    149,    0.0,   17.0,   0.00,   0.00, 1015.3,   69.1, -999.0
25-06-2023, 00:02:32,    150,    0.0,   16.9,   0.00,   0.00, 1015.3,   69.2, -999.0
25-06-2023, 00:02:42,    150,    0.0,   17.0,   0.00,   0.00, 1015.3,   68.9, -999.0
25-06-2023, 00:02:52,    150,    0.0,   16.9,   0.00,   0.00, 1015.3,   68.9, -999.0
25-06-2023, 00:03:02,    150,    0.0,   16.9,   0.00,   0.00, 1015.3,   69.1, -999.0
25-06-2023, 00:03:12,    150,    0.0,   16.9,   0.00,   0.00, 1015.3,   69.0, -999.0
25-06-2023, 00:03:22,    149,    0.0,   16.8,   0.00,   0.00, 1015.3,   69.0, -999.0
25-06-2023, 00:03:32,    150,    0.0,   16.9,   0.00,   0.00, 1015.3,   69.2, -999.0
25-06-2023, 00:03:42,    150,    0.0,   17.0,   0.00,   0.00, 1015.3,   69.2, -999.0
25-06-2023, 00:03:52,    150,    0.0,   16.8,   0.00,   0.00, 1015.3,   69.1, -999.0
25-06-2023, 00:04:02,    150,    0.0,   16.8,   0.00,   0.00, 1015.3,   69.2, -999.0
25-06-2023, 00:04:12,    150,    0.0,   16.8,   0.00,   0.00, 1015.3,   69.1, -999.0
25-06-2023, 00:04:22,    150,    0.0,   16.9,   0.00,   0.00, 1015.3,   69.2, -999.0
25-06-2023, 00:04:32,    150,    0.0,   16.9,   0.00,   0.00, 1015.3,   69.2, -999.0
25-06-2023, 00:04:42,    150,    0.0,   16.8,   0.00,   0.00, 1015.2,   69.2, -999.0
25-06-2023, 00:04:52,    150,    0.0,   16.8,   0.00,   0.00, 1015.3,   69.2, -999.0
25-06-2023, 00:05:02,    150,    0.0,   16.8,   0.00,   0.00, 1015.3,   69.2, -999.0
25-06-2023, 00:05:12,    150,    0.0,   16.9,   0.00,   0.00, 1015.3,   69.2, -999.0
25-06-2023, 00:05:22,    150,    0.0,   16.8,   0.00,   0.00, 1015.3,   69.3, -999.0
25-06-2023, 00:05:32,    150,    0.0,   16.8,   0.00,   0.00, 1015.3,   69.3, -999.0
25-06-2023, 00:05:41,    150,    0.0,   16.8,   0.00,   0.00, 1015.2,   69.1, -999.0
25-06-2023, 00:05:52,    149,    0.0,   16.8,   0.00,   0.00, 1015.3,   69.1, -999.0
25-06-2023, 00:06:02,    150,    0.3,   16.9,   0.00,   0.00, 1015.3,   69.2, -999.0
25-06-2023, 00:06:11,    149,    0.0,   17.0,   0.00,   0.00, 1015.2,   68.8, -999.0
25-06-2023, 00:06:21,    153,    0.0,   17.0,   0.00,   0.00, 1015.2,   68.7, -999.0
25-06-2023, 00:06:32,    150,    0.2,   17.0,   0.00,   0.00, 1015.3,   68.8, -999.0
25-06-2023, 00:06:42,    149,    0.2,   17.1,   0.00,   0.00, 1015.4,   68.7, -999.0
25-06-2023, 00:06:51,    150,    0.0,   17.0,   0.00,   0.00, 1015.2,   68.4, -999.0
25-06-2023, 00:07:01,    149,    0.0,   17.0,   0.00,   0.00, 1015.3,   68.4, -999.0
25-06-2023, 00:07:12,    149,    0.0,   17.1,   0.00,   0.00, 1015.3,   68.3, -999.0
25-06-2023, 00:07:21,    150,    0.0,   17.1,   0.00,   0.00, 1015.2,   68.2, -999.0
25-06-2023, 00:07:31,    150,    0.0,   17.0,   0.00,   0.00, 1015.3,   68.2, -999.0
25-06-2023, 00:07:42,    149,    0.0,   17.1,   0.00,   0.00, 1015.2,   68.3, -999.0
25-06-2023, 00:07:51,    150,    0.0,   17.1,   0.00,   0.00, 1015.3,   68.4, -999.0
25-06-2023, 00:08:01,    150,    0.1,   17.1,   0.00,   0.00, 1015.3,   68.5, -999.0
25-06-2023, 00:08:11,    149,    0.0,   17.0,   0.00,   0.00, 1015.3,   68.3, -999.0
25-06-2023, 00:08:21,    150,    0.0,   17.0,   0.00,   0.00, 1015.2,   68.4, -999.0
25-06-2023, 00:08:31,    150,    0.0,   16.9,   0.00,   0.00, 1015.2,   68.6, -999.0
25-06-2023, 00:08:41,    149,    0.0,   17.0,   0.00,   0.00, 1015.2,   68.5, -999.0
25-06-2023, 00:08:51,    150,    0.0,   17.0,   0.00,   0.00, 1015.2,   68.5, -999.0
25-06-2023, 00:09:01,    150,    0.0,   16.9,   0.00,   0.00, 1015.3,   68.5, -999.0
25-06-2023, 00:09:11,    150,    0.0,   16.9,   0.00,   0.00, 1015.2,   68.8, -999.0
25-06-2023, 00:09:21,    149,    0.0,   16.9,   0.00,   0.00, 1015.2,   68.8, -999.0
25-06-2023, 00:09:31,    150,    0.0,   16.9,   0.00,   0.00, 1015.2,   68.9, -999.0
25-06-2023, 00:09:41,    150,    0.0,   16.9,   0.00,   0.00, 1015.2,   68.8, -999.0
25-06-2023, 00:09:51,    149,    0.0,   16.8,   0.00,   0.00, 1015.2,   68.9, -999.0
25-06-2023, 00:10:01,    150,    0.0,   16.8,   0.00,   0.00, 1015.2,   69.0, -999.0
25-06-2023, 00:10:11,    149,    0.0,   16.9,   0.00,   0.00, 1015.2,   69.1, -999.0
25-06-2023, 00:10:21,    150,    0.0,   16.8,   0.00,   0.00, 1015.2,   69.2, -999.0
25-06-2023, 00:10:31,    149,    0.0,   16.8,   0.00,   0.00, 1015.2,   69.2, -999.0
25-06-2023, 00:10:41,    150,    0.0,   16.8,   0.00,   0.00, 1015.2,   69.1, -999.0
25-06-2023, 00:10:51,    149,    0.0,   16.8,   0.00,   0.00, 1015.2,   69.1, -999.0
25-06-2023, 00:11:01,    150,    0.0,   16.9,   0.00,   0.00, 1015.2,   69.1, -999.0
25-06-2023, 00:11:11,    151,    0.0,   16.8,   0.00,   0.00, 1015.2,   69.2, -999.0
25-06-2023, 00:11:21,    150,    0.0,   16.8,   0.00,   0.00, 1015.2,   69.5, -999.0
25-06-2023, 00:11:31,    149,    0.0,   16.9,   0.00,   0.00, 1015.2,   69.4, -999.0
25-06-2023, 00:11:41,    149,    0.0,   16.8,   0.00,   0.00, 1015.2,   69.5, -999.0
25-06-2023, 00:11:51,    149,    0.0,   16.9,   0.00,   0.00, 1015.2,   69.5, -999.0
25-06-2023, 00:12:01,    149,    0.0,   16.9,   0.00,   0.00, 1015.2,   69.4, -999.0
25-06-2023, 00:12:11,    150,    0.0,   16.9,   0.00,   0.00, 1015.2,   69.2, -999.0
25-06-2023, 00:12:21,    149,    0.0,   16.9,   0.00,   0.00, 1015.2,   69.3, -999.0
25-06-2023, 00:12:31,    149,    0.0,   17.0,   0.00,   0.00, 1015.2,   69.3, -999.0
25-06-2023, 00:12:40,    150,    0.0,   17.0,   0.00,   0.00, 1015.2,   69.1, -999.0
25-06-2023, 00:12:51,    150,    0.0,   17.0,   0.00,   0.00, 1015.1,   68.8, -999.0
25-06-2023, 00:13:01,    149,    0.0,   16.9,   0.00,   0.00, 1015.1,   68.8, -999.0
25-06-2023, 00:13:10,    150,    0.0,   16.9,   0.00,   0.00, 1015.1,   69.0, -999.0
25-06-2023, 00:13:20,    149,    0.0,   16.9,   0.00,   0.00, 1015.2,   69.0, -999.0
25-06-2023, 00:13:31,    150,    0.0,   16.9,   0.00,   0.00, 1015.2,   69.1, -999.0
25-06-2023, 00:13:41,    149,    0.0,   16.8,   0.00,   0.00, 1015.1,   69.2, -999.0
25-06-2023, 00:13:50,    149,    0.0,   16.8,   0.00,   0.00, 1015.2,   69.3, -999.0
25-06-2023, 00:14:00,    150,    0.0,   16.8,   0.00,   0.00, 1015.1,   69.4, -999.0
25-06-2023, 00:14:11,    149,    0.0,   16.9,   0.00,   0.00, 1015.1,   69.4, -999.0
25-06-2023, 00:14:20,    150,    0.0,   16.9,   0.00,   0.00, 1015.1,   69.3, -999.0
25-06-2023, 00:14:30,    150,    0.0,   16.9,   0.00,   0.00, 1015.1,   69.2, -999.0
25-06-2023, 00:14:40,    150,    0.0,   16.9,   0.00,   0.00, 1015.1,   69.0, -999.0
25-06-2023, 00:14:50,    149,    0.0,   16.9,   0.00,   0.00, 1015.1,   68.9, -999.0
25-06-2023, 00:15:00,    149,    0.0,   16.8,   0.00,   0.00, 1015.1,   68.8, -999.0
25-06-2023, 00:15:10,    149,    0.0,   16.9,   0.00,   0.00, 1015.1,   69.0, -999.0
25-06-2023, 00:15:20,    149,    0.0,   16.8,   0.00,   0.00, 1015.1,   69.1, -999.0
25-06-2023, 00:15:30,    150,    0.0,   16.9,   0.00,   0.00, 1015.1,   68.9, -999.0
25-06-2023, 00:15:40,    149,    0.0,   16.9,   0.00,   0.00, 1015.1,   68.8, -999.0
25-06-2023, 00:15:50,    149,    0.0,   16.9,   0.00,   0.00, 1015.1,   68.8, -999.0
25-06-2023, 00:16:00,    150,    0.0,   16.9,   0.00,   0.00, 1015.1,   68.7, -999.0
25-06-2023, 00:16:10,    150,    0.0,   16.9,   0.00,   0.00, 1015.1,   68.4, -999.0
25-06-2023, 00:16:20,    150,    0.0,   16.9,   0.00,   0.00, 1015.1,   68.2, -999.0
25-06-2023, 00:16:30,    150,    0.0,   16.9,   0.00,   0.00, 1015.1,   68.3, -999.0
25-06-2023, 00:16:40,    149,    0.0,   17.0,   0.00,   0.00, 1015.1,   68.4, -999.0
25-06-2023, 00:16:50,    150,    0.0,   17.0,   0.00,   0.00, 1015.1,   68.3, -999.0
25-06-2023, 00:17:00,    135,    0.1,   16.9,   0.00,   0.00, 1015.1,   68.2, -999.0
25-06-2023, 00:17:10,    116,    0.8,   17.0,   0.00,   0.00, 1015.2,   68.4, -999.0
25-06-2023, 00:17:20,    110,    0.7,   17.0,   0.00,   0.00, 1015.2,   68.3, -999.0
25-06-2023, 00:17:30,    110,    1.0,   17.0,   0.00,   0.00, 1015.2,   68.4, -999.0
25-06-2023, 00:17:40,    109,    0.0,   16.9,   0.00,   0.00, 1015.1,   68.0, -999.0
25-06-2023, 00:17:50,    110,    0.4,   16.9,   0.00,   0.00, 1015.2,   68.2, -999.0
25-06-2023, 00:18:00,    110,    0.2,   17.0,   0.00,   0.00, 1015.2,   68.1, -999.0
25-06-2023, 00:18:10,    109,    0.0,   17.1,   0.00,   0.00, 1015.1,   67.9, -999.0
25-06-2023, 00:18:20,    110,    0.0,   17.0,   0.00,   0.00, 1015.1,   67.9, -999.0
25-06-2023, 00:18:30,    109,    0.0,   17.0,   0.00,   0.00, 1015.1,   68.1, -999.0
25-06-2023, 00:18:39,    109,    0.0,   16.9,   0.00,   0.00, 1015.1,   68.0, -999.0
25-06-2023, 00:18:50,    109,    0.0,   17.0,   0.00,   0.00, 1015.1,   68.0, -999.0
25-06-2023, 00:19:00,    109,    0.0,   17.0,   0.00,   0.00, 1015.1,   68.0, -999.0
25-06-2023, 00:19:09,    110,    0.0,   16.9,   0.00,   0.00, 1015.1,   67.8, -999.0
25-06-2023, 00:19:20,    110,    0.0,   16.9,   0.00,   0.00, 1015.1,   67.9, -999.0
25-06-2023, 00:19:31,    117,    0.1,   16.9,   0.00,   0.00, 1015.1,   68.0, -999.0
25-06-2023, 00:19:39,    119,    0.0,   16.9,   0.00,   0.00, 1015.1,   67.9, -999.0
25-06-2023, 00:19:49,    131,    0.8,   17.0,   0.00,   0.00, 1015.2,   68.2, -999.0
25-06-2023, 00:20:00,    141,    0.4,   17.0,   0.00,   0.00, 1015.2,   68.1, -999.0
25-06-2023, 00:20:10,    143,    0.0,   16.9,   0.00,   0.00, 1015.1,   67.9, -999.0
25-06-2023, 00:20:19,    142,    0.0,   16.7,   0.00,   0.00, 1015.1,   68.1, -999.0
25-06-2023, 00:20:29,    142,    0.0,   16.8,   0.00,   0.00, 1015.1,   68.1, -999.0
25-06-2023, 00:20:40,    142,    0.0,   16.9,   0.00,   0.00, 1015.1,   68.1, -999.0
25-06-2023, 00:20:49,    142,    0.0,   16.9,   0.00,   0.00, 1015.1,   67.9, -999.0
25-06-2023, 00:20:59,    143,    0.0,   17.0,   0.00,   0.00, 1015.1,   67.8, -999.0
25-06-2023, 00:21:09,    142,    0.3,   16.9,   0.00,   0.00, 1015.2,   68.0, -999.0
25-06-2023, 00:21:19,    142,    0.0,   16.8,   0.00,   0.00, 1015.1,   67.9, -999.0
25-06-2023, 00:21:29,    142,    0.0,   16.8,   0.00,   0.00, 1015.1,   67.9, -999.0
25-06-2023, 00:21:39,    142,    0.0,   16.9,   0.00,   0.00, 1015.1,   67.7, -999.0
25-06-2023, 00:21:49,    141,    0.0,   16.9,   0.00,   0.00, 1015.1,   67.7, -999.0
25-06-2023, 00:21:59,    142,    0.0,   16.9,   0.00,   0.00, 1015.1,   67.8, -999.0
25-06-2023, 00:22:09,    142,    0.0,   16.9,   0.00,   0.00, 1015.1,   67.9, -999.0
25-06-2023, 00:22:19,    143,    0.0,   16.7,   0.00,   0.00, 1015.1,   68.0, -999.0
25-06-2023, 00:22:29,    143,    0.0,   16.8,   0.00,   0.00, 1015.1,   68.0, -999.0
25-06-2023, 00:22:39,    143,    0.0,   16.8,   0.00,   0.00, 1015.1,   68.1, -999.0
25-06-2023, 00:22:49,    143,    0.0,   16.8,   0.00,   0.00, 1015.1,   68.1, -999.0
25-06-2023, 00:22:59,    143,    0.0,   16.8,   0.00,   0.00, 1015.1,   68.2, -999.0
25-06-2023, 00:23:09,    152,    0.0,   16.8,   0.00,   0.00, 1015.1,   68.1, -999.0
25-06-2023, 00:23:19,    158,    0.0,   16.7,   0.00,   0.00, 1015.1,   68.2, -999.0
25-06-2023, 00:23:29,    159,    0.0,   16.8,   0.00,   0.00, 1015.1,   68.1, -999.0
25-06-2023, 00:23:39,    158,    0.0,   16.9,   0.00,   0.00, 1015.1,   68.1, -999.0
25-06-2023, 00:23:49,    157,    0.2,   16.9,   0.00,   0.00, 1015.2,   68.1, -999.0
25-06-2023, 00:23:59,    162,    0.0,   16.8,   0.00,   0.00, 1015.1,   67.9, -999.0
25-06-2023, 00:24:09,    158,    0.0,   16.8,   0.00,   0.00, 1015.1,   67.8, -999.0
25-06-2023, 00:24:19,    157,    0.0,   16.8,   0.00,   0.00, 1015.1,   67.9, -999.0
25-06-2023, 00:24:29,    157,    0.0,   16.8,   0.00,   0.00, 1015.1,   67.9, -999.0
25-06-2023, 00:24:39,    157,    0.0,   16.8,   0.00,   0.00, 1015.1,   67.9, -999.0
25-06-2023, 00:24:49,    157,    0.0,   16.8,   0.00,   0.00, 1015.1,   67.9, -999.0
25-06-2023, 00:24:59,    157,    0.0,   16.8,   0.00,   0.00, 1015.1,   67.9, -999.0
25-06-2023, 00:25:08,    157,    0.0,   16.9,   0.00,   0.00, 1015.1,   68.0, -999.0
25-06-2023, 00:25:19,    157,    0.0,   16.8,   0.00,   0.00, 1015.1,   68.0, -999.0
25-06-2023, 00:25:29,    158,    0.1,   16.8,   0.00,   0.00, 1015.1,   68.0, -999.0
25-06-2023, 00:25:39,    157,    0.6,   16.9,   0.00,   0.00, 1015.2,   67.8, -999.0
25-06-2023, 00:25:48,    157,    0.0,   16.9,   0.00,   0.00, 1015.1,   67.6, -999.0
25-06-2023, 00:25:59,    157,    0.0,   16.7,   0.00,   0.00, 1015.1,   67.6, -999.0
25-06-2023, 00:26:09,    157,    0.0,   16.8,   0.00,   0.00, 1015.1,   67.8, -999.0
25-06-2023, 00:26:18,    157,    0.0,   16.8,   0.00,   0.00, 1015.1,   67.9, -999.0
25-06-2023, 00:26:28,    157,    0.0,   16.8,   0.00,   0.00, 1015.1,   68.1, -999.0
25-06-2023, 00:26:39,    157,    0.0,   16.9,   0.00,   0.00, 1015.1,   68.2, -999.0
25-06-2023, 00:26:48,    157,    0.7,   16.8,   0.00,   0.00, 1015.1,   68.1, -999.0
25-06-2023, 00:26:58,    158,    0.5,   16.9,   0.00,   0.00, 1015.2,   68.3, -999.0
25-06-2023, 00:27:08,    157,    0.1,   16.8,   0.00,   0.00, 1015.1,   68.0, -999.0
25-06-2023, 00:27:19,    157,    0.0,   16.8,   0.00,   0.00, 1015.1,   67.7, -999.0
25-06-2023, 00:27:28,    157,    0.0,   16.7,   0.00,   0.00, 1015.1,   67.8, -999.0
25-06-2023, 00:27:38,    157,    0.1,   16.8,   0.00,   0.00, 1015.1,   67.9, -999.0
25-06-2023, 00:27:49,    157,    0.3,   16.9,   0.00,   0.00, 1015.1,   67.8, -999.0
25-06-2023, 00:27:58,    157,    0.3,   16.9,   0.00,   0.00, 1015.1,   67.8, -999.0
25-06-2023, 00:28:08,    157,    1.4,   16.9,   0.00,   0.00, 1015.1,   68.0, -999.0
25-06-2023, 00:28:18,    157,    0.7,   16.9,   0.00,   0.00, 1015.1,   67.8, -999.0
25-06-2023, 00:28:28,    155,    0.0,   16.8,   0.00,   0.00, 1015.0,   67.5, -999.0
25-06-2023, 00:28:38,    157,    0.0,   16.8,   0.00,   0.00, 1015.0,   67.6, -999.0
25-06-2023, 00:28:48,    156,    1.2,   16.9,   0.00,   0.00, 1015.1,   68.0, -999.0
25-06-2023, 00:28:58,    157,    0.9,   16.9,   0.00,   0.00, 1015.1,   67.9, -999.0
25-06-2023, 00:29:08,    156,    1.5,   16.9,   0.00,   0.00, 1015.1,   67.9, -999.0
25-06-2023, 00:29:18,    156,    1.6,   16.8,   0.00,   0.00, 1015.1,   67.9, -999.0
25-06-2023, 00:29:28,    157,    0.2,   16.8,   0.00,   0.00, 1015.1,   67.9, -999.0
25-06-2023, 00:29:38,    157,    0.1,   16.7,   0.00,   0.00, 1015.0,   67.7, -999.0
25-06-2023, 00:29:48,    157,    0.0,   16.7,   0.00,   0.00, 1014.9,   67.7, -999.0
25-06-2023, 00:29:58,    157,    0.0,   16.8,   0.00,   0.00, 1015.0,   67.8, -999.0
25-06-2023, 00:30:08,    159,    0.6,   16.8,   0.00,   0.00, 1015.0,   67.6, -999.0
25-06-2023, 00:30:18,    156,    0.6,   17.0,   0.00,   0.00, 1015.1,   67.7, -999.0
25-06-2023, 00:30:28,    156,    0.7,   16.9,   0.00,   0.00, 1015.1,   67.6, -999.0
25-06-2023, 00:30:38,    149,    0.1,   16.8,   0.00,   0.00, 1015.0,   67.3, -999.0
25-06-2023, 00:30:48,    156,    0.2,   16.7,   0.00,   0.00, 1015.0,   67.3, -999.0
25-06-2023, 00:30:58,    156,    0.2,   16.8,   0.00,   0.00, 1015.0,   67.3, -999.0
25-06-2023, 00:31:08,    157,    0.5,   16.8,   0.00,   0.00, 1015.0,   67.4, -999.0
25-06-2023, 00:31:18,    156,    0.4,   16.9,   0.00,   0.00, 1015.0,   67.3, -999.0
25-06-2023, 00:31:28,    157,    0.0,   16.7,   0.00,   0.00, 1014.9,   67.1, -999.0
25-06-2023, 00:31:38,    156,    0.0,   16.8,   0.00,   0.00, 1015.0,   67.2, -999.0
25-06-2023, 00:31:48,    156,    0.0,   16.8,   0.00,   0.00, 1014.9,   67.3, -999.0
25-06-2023, 00:31:58,    156,    0.0,   16.8,   0.00,   0.00, 1014.9,   67.2, -999.0
25-06-2023, 00:32:07,    151,    0.3,   16.8,   0.00,   0.00, 1015.1,   67.4, -999.0
25-06-2023, 00:32:18,    150,    0.1,   16.8,   0.00,   0.00, 1015.0,   67.2, -999.0
25-06-2023, 00:32:28,    151,    0.0,   16.8,   0.00,   0.00, 1014.9,   67.1, -999.0
25-06-2023, 00:32:37,    151,    0.0,   16.7,   0.00,   0.00, 1014.9,   67.2, -999.0
25-06-2023, 00:32:47,    151,    0.0,   16.7,   0.00,   0.00, 1014.9,   67.2, -999.0
25-06-2023, 00:32:58,    151,    0.0,   16.6,   0.00,   0.00, 1014.9,   67.3, -999.0
25-06-2023, 00:33:08,    151,    0.0,   16.7,   0.00,   0.00, 1014.9,   67.2, -999.0
25-06-2023, 00:33:17,    151,    0.4,   16.7,   0.00,   0.00, 1015.0,   67.3, -999.0
25-06-2023, 00:33:27,    140,    1.5,   16.8,   0.00,   0.00, 1015.1,   67.4, -999.0
25-06-2023, 00:33:38,    141,    2.2,   16.8,   0.00,   0.00, 1015.1,   67.3, -999.0
25-06-2023, 00:33:47,    154,    0.7,   16.7,   0.00,   0.00, 1015.0,   67.2, -999.0
25-06-2023, 00:33:57,    153,    0.0,   16.6,   0.00,   0.00, 1014.9,   67.0, -999.0
25-06-2023, 00:34:07,    154,    0.0,   16.7,   0.00,   0.00, 1014.9,   67.2, -999.0
25-06-2023, 00:34:17,    154,    0.0,   16.7,   0.00,   0.00, 1014.9,   67.3, -999.0
25-06-2023, 00:34:27,    154,    0.0,   16.6,   0.00,   0.00, 1014.9,   67.3, -999.0
25-06-2023, 00:34:37,    154,    0.8,   16.7,   0.00,   0.00, 1015.0,   67.5, -999.0
25-06-2023, 00:34:47,    154,    0.2,   16.7,   0.00,   0.00, 1015.0,   67.4, -999.0
25-06-2023, 00:34:57,    154,    0.0,   16.6,   0.00,   0.00, 1014.9,   67.2, -999.0
25-06-2023, 00:35:07,    153,    0.0,   16.7,   0.00,   0.00, 1014.9,   67.3, -999.0
25-06-2023, 00:35:17,    159,    0.3,   16.6,   0.00,   0.00, 1015.0,   67.5, -999.0
25-06-2023, 00:35:27,    158,    0.4,   16.7,   0.00,   0.00, 1015.0,   67.6, -999.0
25-06-2023, 00:35:37,    157,    0.0,   16.6,   0.00,   0.00, 1014.9,   67.4, -999.0
25-06-2023, 00:35:47,    158,    0.0,   16.6,   0.00,   0.00, 1014.9,   67.5, -999.0
25-06-2023, 00:35:57,    158,    0.0,   16.7,   0.00,   0.00, 1014.9,   67.5, -999.0
25-06-2023, 00:36:07,    158,    0.2,   16.6,   0.00,   0.00, 1015.0,   67.6, -999.0
25-06-2023, 00:36:17,    158,    0.0,   16.6,   0.00,   0.00, 1014.9,   67.5, -999.0
25-06-2023, 00:36:27,    158,    0.0,   16.6,   0.00,   0.00, 1014.9,   67.4, -999.0
25-06-2023, 00:36:37,    158,    0.9,   16.7,   0.00,   0.00, 1015.0,   67.7, -999.0
25-06-2023, 00:36:47,    158,    0.7,   16.7,   0.00,   0.00, 1015.0,   67.5, -999.0
25-06-2023, 00:36:57,    159,    0.1,   16.7,   0.00,   0.00, 1015.0,   67.4, -999.0
25-06-2023, 00:37:07,    159,    0.0,   16.7,   0.00,   0.00, 1014.9,   67.2, -999.0
25-06-2023, 00:37:17,    158,    0.0,   16.6,   0.00,   0.00, 1014.9,   67.2, -999.0
25-06-2023, 00:37:27,    157,    0.0,   16.7,   0.00,   0.00, 1014.9,   67.2, -999.0
25-06-2023, 00:37:37,    158,    0.0,   16.6,   0.00,   0.00, 1014.9,   67.3, -999.0
25-06-2023, 00:37:47,    157,    0.0,   16.6,   0.00,   0.00, 1014.9,   67.3, -999.0
25-06-2023, 00:37:57,    157,    0.0,   16.6,   0.00,   0.00, 1014.9,   67.4, -999.0
25-06-2023, 00:38:07,    158,    0.0,   16.6,   0.00,   0.00, 1014.9,   67.4, -999.0
25-06-2023, 00:38:17,    158,    0.0,   16.7,   0.00,   0.00, 1014.9,   67.2, -999.0
25-06-2023, 00:38:27,    157,    0.0,   16.7,   0.00,   0.00, 1014.9,   67.1, -999.0
25-06-2023, 00:38:36,    157,    0.0,   16.7,   0.00,   0.00, 1014.9,   67.0, -999.0
25-06-2023, 00:38:47,    157,    0.0,   16.7,   0.00,   0.00, 1014.9,   66.9, -999.0
25-06-2023, 00:38:57,    157,    0.0,   16.7,   0.00,   0.00, 1014.9,   66.9, -999.0
25-06-2023, 00:39:06,    158,    0.0,   16.7,   0.00,   0.00, 1014.9,   66.8, -999.0
25-06-2023, 00:39:16,    157,    0.0,   16.6,   0.00,   0.00, 1014.9,   66.7, -999.0
25-06-2023, 00:39:27,    158,    0.0,   16.6,   0.00,   0.00, 1014.9,   66.8, -999.0
25-06-2023, 00:39:37,    157,    0.0,   16.6,   0.00,   0.00, 1014.9,   67.0, -999.0
25-06-2023, 00:39:46,    157,    0.0,   16.8,   0.00,   0.00, 1014.9,   67.1, -999.0
25-06-2023, 00:39:56,    157,    0.0,   16.8,   0.00,   0.00, 1014.9,   66.8, -999.0
25-06-2023, 00:40:07,    158,    0.0,   16.8,   0.00,   0.00, 1014.9,   66.5, -999.0
25-06-2023, 00:40:16,    158,    0.0,   16.8,   0.00,   0.00, 1014.9,   66.2, -999.0
25-06-2023, 00:40:26,    157,    0.0,   16.7,   0.00,   0.00, 1014.9,   66.3, -999.0
25-06-2023, 00:40:36,    158,    0.0,   16.7,   0.00,   0.00, 1014.9,   66.2, -999.0
25-06-2023, 00:40:46,    158,    0.0,   16.7,   0.00,   0.00, 1014.9,   66.3, -999.0
25-06-2023, 00:40:56,    157,    0.0,   16.7,   0.00,   0.00, 1014.9,   66.3, -999.0
25-06-2023, 00:41:06,    157,    0.0,   16.6,   0.00,   0.00, 1014.9,   66.6, -999.0
25-06-2023, 00:41:16,    156,    0.0,   16.8,   0.00,   0.00, 1014.9,   66.6, -999.0
25-06-2023, 00:41:26,    158,    0.0,   16.8,   0.00,   0.00, 1014.9,   66.5, -999.0
25-06-2023, 00:41:36,    158,    0.0,   16.8,   0.00,   0.00, 1014.9,   66.2, -999.0
25-06-2023, 00:41:46,    157,    0.0,   16.9,   0.00,   0.00, 1014.9,   65.8, -999.0
25-06-2023, 00:41:56,    158,    0.0,   16.8,   0.00,   0.00, 1014.9,   65.8, -999.0
25-06-2023, 00:42:06,    157,    0.0,   16.8,   0.00,   0.00, 1014.9,   65.7, -999.0
25-06-2023, 00:42:16,    158,    0.0,   16.8,   0.00,   0.00, 1014.9,   65.7, -999.0
25-06-2023, 00:42:26,    157,    0.0,   16.7,   0.00,   0.00, 1014.9,   65.6, -999.0
25-06-2023, 00:42:36,    158,    0.0,   16.7,   0.00,   0.00, 1014.9,   65.5, -999.0
25-06-2023, 00:42:46,    157,    0.0,   16.7,   0.00,   0.00, 1014.9,   65.7, -999.0
25-06-2023, 00:42:56,    158,    0.0,   16.8,   0.00,   0.00, 1014.9,   65.8, -999.0
25-06-2023, 00:43:06,    157,    0.0,   16.7,   0.00,   0.00, 1014.9,   66.0, -999.0
25-06-2023, 00:43:16,    157,    0.0,   16.7,   0.00,   0.00, 1014.9,   66.1, -999.0
25-06-2023, 00:43:26,    157,    0.0,   16.8,   0.00,   0.00, 1014.9,   66.0, -999.0
25-06-2023, 00:43:36,    157,    0.0,   16.7,   0.00,   0.00, 1014.9,   65.8, -999.0
25-06-2023, 00:43:46,    157,    0.0,   16.7,   0.00,   0.00, 1014.9,   65.9, -999.0
25-06-2023, 00:43:56,    157,    0.0,   16.7,   0.00,   0.00, 1014.9,   65.9, -999.0
25-06-2023, 00:44:06,    157,    0.0,   16.7,   0.00,   0.00, 1014.9,   66.0, -999.0
25-06-2023, 00:44:16,    157,    0.0,   16.8,   0.00,   0.00, 1014.9,   65.8, -999.0
25-06-2023, 00:44:26,    191,    0.0,   16.8,   0.00,   0.00, 1014.9,   66.0, -999.0
25-06-2023, 00:44:36,    190,    0.0,   16.7,   0.00,   0.00, 1014.8,   65.8, -999.0
25-06-2023, 00:44:46,    190,    0.0,   16.8,   0.00,   0.00, 1014.8,   65.8, -999.0
25-06-2023, 00:44:56,    190,    0.0,   16.8,   0.00,   0.00, 1014.9,   65.8, -999.0
25-06-2023, 00:45:06,    190,    0.0,   16.7,   0.00,   0.00, 1014.8,   65.7, -999.0
25-06-2023, 00:45:16,    190,    0.0,   16.7,   0.00,   0.00, 1014.9,   65.6, -999.0
25-06-2023, 00:45:26,    156,    0.1,   16.8,   0.00,   0.00, 1014.9,   65.7, -999.0
25-06-2023, 00:45:36,    184,    1.4,   16.9,   0.00,   0.00, 1015.0,   65.6, -999.0
25-06-2023, 00:45:45,    186,    0.5,   16.8,   0.00,   0.00, 1014.9,   65.5, -999.0
25-06-2023, 00:45:56,    185,    0.2,   16.8,   0.00,   0.00, 1014.9,   65.3, -999.0
25-06-2023, 00:46:06,    182,    0.0,   16.7,   0.00,   0.00, 1014.9,   65.3, -999.0
25-06-2023, 00:46:15,    143,    1.9,   16.9,   0.00,   0.00, 1015.0,   65.6, -999.0
25-06-2023, 00:46:25,    142,    0.5,   16.8,   0.00,   0.00, 1014.9,   65.5, -999.0
25-06-2023, 00:46:36,    142,    0.0,   16.7,   0.00,   0.00, 1014.9,   65.4, -999.0
25-06-2023, 00:46:45,    142,    0.0,   16.7,   0.00,   0.00, 1014.9,   65.5, -999.0